Weather History for KLWT - September, 2012

Change the Weather History Date:

Wednesday, September 26, 2012

  Actual Average Record
Temperature  
Mean Temperature 55 °F 51 °F  
Max Temperature 65 °F 64 °F 89 °F (1963)
Min Temperature 44 °F 37 °F 9 °F (1900)
Degree Days  
Heating Degree Days 10 14  
Month to date heating degree days 181 258  
Since 1 July heating degree days 253 416  
Cooling Degree Days 0 0  
Month to date cooling degree days 7 13  
Year to date cooling degree days 314 209  
Growing Degree Days 4 (Base 50)    
Moisture  
Dew Point 44 °F    
Average Humidity 67    
Maximum Humidity 86    
Minimum Humidity 48    
Precipitation  
Precipitation T in 0.04 in 0.53 in (1946)
Month to date precipitation 0.02 1.18  
Year to date precipitation 12.85 14.18  
Snow  
Snow 0.00 in - - ()
Snow Depth 0.00 in    
Sea Level Pressure  
Sea Level Pressure 30.10 in    
Wind  
Wind Speed 6 mph (WNW)    
Max Wind Speed 8 mph    
Max Gust Speed 9 mph    
Visibility 10 miles    
Events      
T = Trace of Precipitation, MM = Missing Value Source: NWS Daily Summary

Daily Weather History Graph

Daily Weather History Graph

Search for Another Location

Airport or City:

Trip Planner

Search our weather history database for the weather conditions in past years. The results will help you decide how hot, cold, wet, or windy it might be!

Date:

Astronomy

Sep. 26, 2012 Rise Set
Actual Time 7:10 AM MDT 7:06 PM MDT
Civil Twilight 6:40 AM MDT 7:36 PM MDT
Nautical Twilight 6:04 AM MDT 8:12 PM MDT
Astronomical Twilight 5:28 AM MDT 8:48 PM MDT
Moon 5:16 PM MDT (9/26) 3:28 AM MDT (9/26)
Length of Visible Light 12h 56m
Length of Day
11h 55m
Waxing Gibbous, 88% of the Moon is Illuminated
Sep 26
Waxing Gibbous
Sep 29
Full
Oct 8
Last Quarter
Oct 15
New
Oct 21
First Quarter

Hourly Weather History & Observations

Time (MDT) Temp. Windchill Dew Point Humidity Pressure Visibility Wind Dir Wind Speed Gust Speed Precip Events Conditions
4:54 AM 50.0 °F - 37.0 °F 61% 30.00 in 10.0 mi SW 12.7 mph - N/A   Clear
6:54 AM 50.0 °F - 39.9 °F 68% 30.04 in 10.0 mi WSW 9.2 mph - N/A   Clear
7:54 AM 48.9 °F - 42.1 °F 77% 30.07 in 10.0 mi West 9.2 mph - N/A   Mostly Cloudy
8:54 AM 50.0 °F - 46.0 °F 86% 30.09 in 10.0 mi West 4.6 mph - 0.00 in   Mostly Cloudy
9:43 AM 51.8 °F - 46.4 °F 82% 30.15 in 10.0 mi West 11.5 mph - N/A   Overcast
9:54 AM 52.0 °F - 46.0 °F 80% 30.11 in 10.0 mi WNW 9.2 mph - N/A   Mostly Cloudy
10:54 AM 52.0 °F - 46.0 °F 80% 30.13 in 10.0 mi West 8.1 mph - N/A   Mostly Cloudy
11:09 AM 53.6 °F - 46.4 °F 77% 30.16 in 10.0 mi West 5.8 mph - N/A   Overcast
11:54 AM 55.0 °F - 46.0 °F 72% 30.12 in 10.0 mi Variable 6.9 mph - N/A   Overcast
12:54 PM 55.0 °F - 46.0 °F 72% 30.12 in 10.0 mi WNW 5.8 mph - 0.00 in   Partly Cloudy
1:54 PM 59.0 °F - 46.0 °F 62% 30.09 in 10.0 mi Variable 3.5 mph - N/A   Clear
2:54 PM 62.1 °F - 44.1 °F 52% 30.07 in 10.0 mi North 4.6 mph - N/A   Partly Cloudy
4:54 PM 64.0 °F - 44.1 °F 48% 30.05 in 10.0 mi North 10.4 mph - N/A   Mostly Cloudy
5:54 PM 61.0 °F - 45.0 °F 56% 30.08 in 10.0 mi North 10.4 mph - N/A   Mostly Cloudy
6:54 PM 57.0 °F - 45.0 °F 64% 30.09 in 10.0 mi North 6.9 mph - N/A   Clear
7:54 PM 54.0 °F - 45.0 °F 72% 30.12 in 10.0 mi SSE 3.5 mph - N/A   Clear
8:54 PM 50.0 °F - 43.0 °F 77% 30.13 in 10.0 mi Calm Calm - N/A   Clear
9:54 PM 48.9 °F - 42.1 °F 77% 30.13 in 10.0 mi Calm Calm - N/A   Clear
10:54 PM 45.0 °F 41.8 °F 39.9 °F 82% 30.15 in 10.0 mi ESE 5.8 mph - N/A   Unknown
11:54 PM 46.9 °F - 41.0 °F 80% 30.14 in 10.0 mi SE 4.6 mph - N/A   Mostly Cloudy